Year,Month,Day,Hour,Minute,Value (Times are PST for temperature in C)
2021,05,19,00,00,6.90
2021,05,19,00,01,6.90
2021,05,19,00,02,6.90
2021,05,19,00,03,6.90
2021,05,19,00,04,6.90
2021,05,19,00,05,6.90
2021,05,19,00,06,6.90
2021,05,19,00,07,6.90
2021,05,19,00,08,6.90
2021,05,19,00,09,6.80
2021,05,19,00,10,6.80
2021,05,19,00,11,6.80
2021,05,19,00,12,6.80
2021,05,19,00,13,6.80
2021,05,19,00,14,6.80
2021,05,19,00,15,6.80
2021,05,19,00,16,6.80
2021,05,19,00,17,6.80
2021,05,19,00,18,6.80
2021,05,19,00,19,6.80
2021,05,19,00,20,6.80
2021,05,19,00,21,6.70
2021,05,19,00,22,6.70
2021,05,19,00,23,6.70
2021,05,19,00,24,6.70
2021,05,19,00,25,6.70
2021,05,19,00,26,6.70
2021,05,19,00,27,6.70
2021,05,19,00,28,6.70
2021,05,19,00,29,6.70
2021,05,19,00,30,6.70
2021,05,19,00,31,6.60
2021,05,19,00,32,6.60
2021,05,19,00,33,6.60
2021,05,19,00,34,6.60
2021,05,19,00,35,6.60
2021,05,19,00,36,6.60
2021,05,19,00,37,6.60
2021,05,19,00,38,6.50
2021,05,19,00,39,6.50
2021,05,19,00,40,6.50
2021,05,19,00,41,6.50
2021,05,19,00,42,6.50
2021,05,19,00,43,6.40
2021,05,19,00,44,6.40
2021,05,19,00,45,6.40
2021,05,19,00,46,6.40
2021,05,19,00,47,6.40
2021,05,19,00,48,6.40
2021,05,19,00,49,6.40
2021,05,19,00,50,6.40
2021,05,19,00,51,6.30
2021,05,19,00,52,6.30
2021,05,19,00,53,6.30
2021,05,19,00,54,6.30
2021,05,19,00,55,6.30
2021,05,19,00,56,6.30
2021,05,19,00,57,6.30
2021,05,19,00,58,6.30
2021,05,19,00,59,6.20
2021,05,19,01,00,6.20
2021,05,19,01,01,6.20
2021,05,19,01,02,6.20
2021,05,19,01,03,6.20
2021,05,19,01,04,6.20
2021,05,19,01,05,6.20
2021,05,19,01,06,6.10
2021,05,19,01,07,6.10
2021,05,19,01,08,6.10
2021,05,19,01,09,6.10
2021,05,19,01,10,6.10
2021,05,19,01,11,6.00
2021,05,19,01,12,6.00
2021,05,19,01,13,6.00
2021,05,19,01,14,6.00
2021,05,19,01,15,5.90
2021,05,19,01,16,5.90
2021,05,19,01,17,5.90
2021,05,19,01,18,5.90
2021,05,19,01,19,5.90
2021,05,19,01,20,5.80
2021,05,19,01,21,5.80
2021,05,19,01,22,5.80
2021,05,19,01,23,5.80
2021,05,19,01,24,5.80
2021,05,19,01,25,5.80
2021,05,19,01,26,5.80
2021,05,19,01,27,5.80
2021,05,19,01,28,5.80
2021,05,19,01,29,5.80
2021,05,19,01,30,5.80
2021,05,19,01,31,5.80
2021,05,19,01,32,5.80
2021,05,19,01,33,5.80
2021,05,19,01,34,5.80
2021,05,19,01,35,5.80
2021,05,19,01,36,5.70
2021,05,19,01,37,5.70
2021,05,19,01,38,5.70
2021,05,19,01,39,5.70
2021,05,19,01,40,5.70
2021,05,19,01,41,5.70
2021,05,19,01,42,5.70
2021,05,19,01,43,5.70
2021,05,19,01,44,5.70
2021,05,19,01,45,5.70
2021,05,19,01,46,5.70
2021,05,19,01,47,5.70
2021,05,19,01,48,5.70
2021,05,19,01,49,5.70
2021,05,19,01,50,5.80
2021,05,19,01,51,5.80
2021,05,19,01,52,5.80
2021,05,19,01,53,5.80
2021,05,19,01,54,5.80
2021,05,19,01,55,5.80
2021,05,19,01,56,5.80
2021,05,19,01,57,5.80
2021,05,19,01,58,5.90
2021,05,19,01,59,5.90
2021,05,19,02,00,5.90
2021,05,19,02,01,5.90
2021,05,19,02,02,5.90
2021,05,19,02,03,5.90
2021,05,19,02,04,5.90
2021,05,19,02,05,5.90
2021,05,19,02,06,5.90
2021,05,19,02,07,5.90
2021,05,19,02,08,5.90
2021,05,19,02,09,5.90
2021,05,19,02,10,5.90
2021,05,19,02,11,5.90
2021,05,19,02,12,5.90
2021,05,19,02,13,5.90
2021,05,19,02,14,5.90
2021,05,19,02,15,5.90
2021,05,19,02,16,5.90
2021,05,19,02,17,5.90
2021,05,19,02,18,5.90
2021,05,19,02,19,5.90
2021,05,19,02,20,5.90
2021,05,19,02,21,5.90
2021,05,19,02,22,5.90
2021,05,19,02,23,5.90
2021,05,19,02,24,5.90
2021,05,19,02,25,5.90
2021,05,19,02,26,6.00
2021,05,19,02,27,6.00
2021,05,19,02,28,6.00
2021,05,19,02,29,6.00
2021,05,19,02,30,6.00
2021,05,19,02,31,6.00
2021,05,19,02,32,6.00
2021,05,19,02,33,6.10
2021,05,19,02,34,6.10
2021,05,19,02,35,6.10
2021,05,19,02,36,6.10
2021,05,19,02,37,6.10
2021,05,19,02,38,6.10
2021,05,19,02,39,6.10
2021,05,19,02,40,6.10
2021,05,19,02,41,6.10
2021,05,19,02,42,6.10
2021,05,19,02,43,6.10
2021,05,19,02,44,6.10
2021,05,19,02,45,6.10
2021,05,19,02,46,6.10
2021,05,19,02,47,6.10
2021,05,19,02,48,6.10
2021,05,19,02,49,6.10
2021,05,19,02,50,6.10
2021,05,19,02,51,6.10
2021,05,19,02,52,6.10
2021,05,19,02,53,6.10
2021,05,19,02,54,6.10
2021,05,19,02,55,6.10
2021,05,19,02,56,6.10
2021,05,19,02,57,6.10
2021,05,19,02,58,6.10
2021,05,19,02,59,6.10
2021,05,19,03,00,6.10
2021,05,19,03,01,6.20
2021,05,19,03,02,6.20
2021,05,19,03,03,6.20
2021,05,19,03,04,6.20
2021,05,19,03,05,6.20
2021,05,19,03,06,6.20
2021,05,19,03,07,6.20
2021,05,19,03,08,6.20
2021,05,19,03,09,6.20
2021,05,19,03,10,6.20
2021,05,19,03,11,6.20
2021,05,19,03,12,6.20
2021,05,19,03,13,6.10
2021,05,19,03,14,6.10
2021,05,19,03,15,6.10
2021,05,19,03,16,6.10
2021,05,19,03,17,6.00
2021,05,19,03,18,6.00
2021,05,19,03,19,6.00
2021,05,19,03,20,5.90
2021,05,19,03,21,5.90
2021,05,19,03,22,5.90
2021,05,19,03,23,5.90
2021,05,19,03,24,5.90
2021,05,19,03,25,5.80
2021,05,19,03,26,5.90
2021,05,19,03,27,5.90
2021,05,19,03,28,5.90
2021,05,19,03,29,5.90
2021,05,19,03,30,5.90
2021,05,19,03,31,5.90
2021,05,19,03,32,5.90
2021,05,19,03,33,5.90
2021,05,19,03,34,5.90
2021,05,19,03,35,5.90
2021,05,19,03,36,5.90
2021,05,19,03,37,5.90
2021,05,19,03,38,5.90
2021,05,19,03,39,5.90
2021,05,19,03,40,5.80
2021,05,19,03,41,5.80
2021,05,19,03,42,5.80
2021,05,19,03,43,5.80
2021,05,19,03,44,5.70
2021,05,19,03,45,5.70
2021,05,19,03,46,5.70
2021,05,19,03,47,5.70
2021,05,19,03,48,5.70
2021,05,19,03,49,5.70
2021,05,19,03,50,5.70
2021,05,19,03,51,5.70
2021,05,19,03,52,5.70
2021,05,19,03,53,5.70
2021,05,19,03,54,5.70
2021,05,19,03,55,5.60
2021,05,19,03,56,5.60
2021,05,19,03,57,5.70
2021,05,19,03,58,5.70
2021,05,19,03,59,5.70
2021,05,19,04,00,5.70
2021,05,19,04,01,5.80
2021,05,19,04,02,5.80
2021,05,19,04,03,5.90
2021,05,19,04,04,5.90
2021,05,19,04,05,6.00
2021,05,19,04,06,6.00
2021,05,19,04,07,6.10
2021,05,19,04,08,6.10
2021,05,19,04,09,6.10
2021,05,19,04,10,6.10
2021,05,19,04,11,6.10
2021,05,19,04,12,6.10
2021,05,19,04,13,6.10
2021,05,19,04,14,6.10
2021,05,19,04,15,6.10
2021,05,19,04,16,6.10
2021,05,19,04,17,6.10
2021,05,19,04,18,6.10
2021,05,19,04,19,6.10
2021,05,19,04,20,6.10
2021,05,19,04,21,6.10
2021,05,19,04,22,6.00
2021,05,19,04,23,6.00
2021,05,19,04,24,6.00
2021,05,19,04,25,6.00
2021,05,19,04,26,6.00
2021,05,19,04,27,6.00
2021,05,19,04,28,6.00
2021,05,19,04,29,6.00
2021,05,19,04,30,5.90
2021,05,19,04,31,5.90
2021,05,19,04,32,5.90
2021,05,19,04,33,5.90
2021,05,19,04,34,5.90
2021,05,19,04,35,5.90
2021,05,19,04,36,5.90
2021,05,19,04,37,5.90
2021,05,19,04,38,5.90
2021,05,19,04,39,5.90
2021,05,19,04,40,5.80
2021,05,19,04,41,5.80
2021,05,19,04,42,5.80
2021,05,19,04,43,5.80
2021,05,19,04,44,5.80
2021,05,19,04,45,5.80
2021,05,19,04,46,5.80
2021,05,19,04,47,5.80
2021,05,19,04,48,5.80
2021,05,19,04,49,5.70
2021,05,19,04,50,5.70
2021,05,19,04,51,5.70
2021,05,19,04,52,5.70
2021,05,19,04,53,5.70
2021,05,19,04,54,5.70
2021,05,19,04,55,5.70
2021,05,19,04,56,5.60
2021,05,19,04,57,5.60
2021,05,19,04,58,5.60
2021,05,19,04,59,5.60
2021,05,19,05,00,5.60
2021,05,19,05,01,5.50
2021,05,19,05,02,5.50
2021,05,19,05,03,5.40
2021,05,19,05,04,5.40
2021,05,19,05,05,5.40
2021,05,19,05,06,5.40
2021,05,19,05,07,5.40
2021,05,19,05,08,5.40
2021,05,19,05,09,5.30
2021,05,19,05,10,5.30
2021,05,19,05,11,5.30
2021,05,19,05,12,5.30
2021,05,19,05,13,5.20
2021,05,19,05,14,5.20
2021,05,19,05,15,5.20
2021,05,19,05,16,5.20
2021,05,19,05,17,5.20
2021,05,19,05,18,5.10
2021,05,19,05,19,5.10
2021,05,19,05,20,5.10
2021,05,19,05,21,5.10
2021,05,19,05,22,5.00
2021,05,19,05,23,5.00
2021,05,19,05,24,5.00
2021,05,19,05,25,4.90
2021,05,19,05,26,4.90
2021,05,19,05,27,4.90
2021,05,19,05,28,4.90
2021,05,19,05,29,4.90
2021,05,19,05,30,4.90
2021,05,19,05,31,4.90
2021,05,19,05,32,4.90
2021,05,19,05,33,4.90
2021,05,19,05,34,4.90
2021,05,19,05,35,4.90
2021,05,19,05,36,4.90
2021,05,19,05,37,4.90
2021,05,19,05,38,4.90
2021,05,19,05,39,4.80
2021,05,19,05,40,4.80
2021,05,19,05,41,4.80
2021,05,19,05,42,4.80
2021,05,19,05,43,4.80
2021,05,19,05,44,4.80
2021,05,19,05,45,4.80
2021,05,19,05,46,4.70
2021,05,19,05,47,4.70
2021,05,19,05,48,4.70
2021,05,19,05,49,4.70
2021,05,19,05,50,4.70
2021,05,19,05,51,4.70
2021,05,19,05,52,4.60
2021,05,19,05,53,4.60
2021,05,19,05,54,4.60
2021,05,19,05,55,4.60
2021,05,19,05,56,4.60
2021,05,19,05,57,4.60
2021,05,19,05,58,4.60
2021,05,19,05,59,4.70
2021,05,19,06,00,4.70
2021,05,19,06,01,4.70
2021,05,19,06,02,4.70
2021,05,19,06,03,4.70
2021,05,19,06,04,4.70
2021,05,19,06,05,4.70
2021,05,19,06,06,4.70
2021,05,19,06,07,4.70
2021,05,19,06,08,4.70
2021,05,19,06,09,4.70
2021,05,19,06,10,4.70
2021,05,19,06,11,4.70
2021,05,19,06,12,4.70
2021,05,19,06,13,4.70
2021,05,19,06,14,4.70
2021,05,19,06,15,4.70
2021,05,19,06,16,4.70
2021,05,19,06,17,4.70
2021,05,19,06,18,4.70
2021,05,19,06,19,4.70
2021,05,19,06,20,4.70
2021,05,19,06,21,4.70
2021,05,19,06,22,4.70
2021,05,19,06,23,4.70
2021,05,19,06,24,4.70
2021,05,19,06,25,4.80
2021,05,19,06,26,4.80
2021,05,19,06,27,4.80
2021,05,19,06,28,4.80
2021,05,19,06,29,4.80
2021,05,19,06,30,4.80
2021,05,19,06,31,4.80
2021,05,19,06,32,4.80
2021,05,19,06,33,4.80
2021,05,19,06,34,4.80
2021,05,19,06,35,4.80
2021,05,19,06,36,4.80
2021,05,19,06,37,4.90
2021,05,19,06,38,4.90
2021,05,19,06,39,4.90
2021,05,19,06,40,4.90
2021,05,19,06,41,4.90
2021,05,19,06,42,4.90
2021,05,19,06,43,4.90
2021,05,19,06,44,4.90
2021,05,19,06,45,4.90
2021,05,19,06,46,4.90
2021,05,19,06,47,4.90
2021,05,19,06,48,4.90
2021,05,19,06,49,4.90
2021,05,19,06,50,4.90
2021,05,19,06,51,4.90
2021,05,19,06,52,4.90
2021,05,19,06,53,5.00
2021,05,19,06,54,5.00
2021,05,19,06,55,5.10
2021,05,19,06,56,5.10
2021,05,19,06,57,5.10
2021,05,19,06,58,5.10
2021,05,19,06,59,5.10
2021,05,19,07,00,5.20
2021,05,19,07,01,5.20
2021,05,19,07,02,5.20
2021,05,19,07,03,5.20
2021,05,19,07,04,5.20
2021,05,19,07,05,5.30
2021,05,19,07,06,5.30
2021,05,19,07,07,5.40
2021,05,19,07,08,5.50
2021,05,19,07,09,5.60
2021,05,19,07,10,5.60
2021,05,19,07,11,5.70
2021,05,19,07,12,5.80
2021,05,19,07,13,5.80
2021,05,19,07,14,5.90
2021,05,19,07,15,6.00
2021,05,19,07,16,6.20
2021,05,19,07,17,6.20
2021,05,19,07,18,6.30
2021,05,19,07,19,6.40
2021,05,19,07,20,6.50
2021,05,19,07,21,6.60
2021,05,19,07,22,6.60
2021,05,19,07,23,6.70
2021,05,19,07,24,6.70
2021,05,19,07,25,6.70
2021,05,19,07,26,6.70
2021,05,19,07,27,6.80
2021,05,19,07,28,6.80
2021,05,19,07,29,6.80
2021,05,19,07,30,6.80
2021,05,19,07,31,6.80
2021,05,19,07,32,6.90
2021,05,19,07,33,6.90
2021,05,19,07,34,7.00
2021,05,19,07,35,7.10
2021,05,19,07,36,7.10
2021,05,19,07,37,7.20
2021,05,19,07,38,7.20
2021,05,19,07,39,7.30
2021,05,19,07,40,7.30
2021,05,19,07,41,7.40
2021,05,19,07,42,7.50
2021,05,19,07,43,7.60
2021,05,19,07,44,7.70
2021,05,19,07,45,7.70
2021,05,19,07,46,7.80
2021,05,19,07,47,7.80
2021,05,19,07,48,7.90
2021,05,19,07,49,7.90
2021,05,19,07,50,7.90
2021,05,19,07,51,8.00
2021,05,19,07,52,8.00
2021,05,19,07,53,8.10
2021,05,19,07,54,8.10
2021,05,19,07,55,8.10
2021,05,19,07,56,8.10
2021,05,19,07,57,8.20
2021,05,19,07,58,8.20
2021,05,19,07,59,8.30
2021,05,19,08,00,8.30
2021,05,19,08,01,8.40
2021,05,19,08,02,8.40
2021,05,19,08,03,8.50
2021,05,19,08,04,8.50
2021,05,19,08,05,8.50
2021,05,19,08,06,8.60
2021,05,19,08,07,8.60
2021,05,19,08,08,8.60
2021,05,19,08,09,8.60
2021,05,19,08,10,8.70
2021,05,19,08,11,8.70
2021,05,19,08,12,8.80
2021,05,19,08,13,8.80
2021,05,19,08,14,8.80
2021,05,19,08,15,8.70
2021,05,19,08,16,8.70
2021,05,19,08,17,8.70
2021,05,19,08,18,8.70
2021,05,19,08,19,8.70
2021,05,19,08,20,8.70
2021,05,19,08,21,8.70
2021,05,19,08,22,8.80
2021,05,19,08,23,8.80
2021,05,19,08,24,8.70
2021,05,19,08,25,8.80
2021,05,19,08,26,8.80
2021,05,19,08,27,8.80
2021,05,19,08,28,8.90
2021,05,19,08,29,8.90
2021,05,19,08,30,9.00
2021,05,19,08,31,9.10
2021,05,19,08,32,9.10
2021,05,19,08,33,9.20
2021,05,19,08,34,9.30
2021,05,19,08,35,9.30
2021,05,19,08,36,9.30
2021,05,19,08,37,9.30
2021,05,19,08,38,9.30
2021,05,19,08,39,9.30
2021,05,19,08,40,9.30
2021,05,19,08,41,9.30
2021,05,19,08,42,9.30
2021,05,19,08,43,9.30
2021,05,19,08,44,9.40
2021,05,19,08,45,9.40
2021,05,19,08,46,9.40
2021,05,19,08,47,9.40
2021,05,19,08,48,9.40
2021,05,19,08,49,9.40
2021,05,19,08,50,9.40
2021,05,19,08,51,9.50
2021,05,19,08,52,9.50
2021,05,19,08,53,9.60
2021,05,19,08,54,9.60
2021,05,19,08,55,9.60
2021,05,19,08,56,9.60
2021,05,19,08,57,9.60
2021,05,19,08,58,9.70
2021,05,19,08,59,9.70
2021,05,19,09,00,9.80
2021,05,19,09,01,9.80
2021,05,19,09,02,9.80
2021,05,19,09,03,9.90
2021,05,19,09,04,9.80
2021,05,19,09,05,9.80
2021,05,19,09,06,9.80
2021,05,19,09,07,9.80
2021,05,19,09,08,9.70
2021,05,19,09,09,9.70
2021,05,19,09,10,9.70
2021,05,19,09,11,9.70
2021,05,19,09,12,9.80
2021,05,19,09,13,9.80
2021,05,19,09,14,9.80
2021,05,19,09,15,9.90
2021,05,19,09,16,9.90
2021,05,19,09,17,10.00
2021,05,19,09,18,10.00
2021,05,19,09,19,10.10
2021,05,19,09,20,10.10
2021,05,19,09,21,10.20
2021,05,19,09,22,10.20
2021,05,19,09,23,10.30
2021,05,19,09,24,10.40
2021,05,19,09,25,10.40
2021,05,19,09,26,10.40
2021,05,19,09,27,10.40
2021,05,19,09,28,10.40
2021,05,19,09,29,10.30
2021,05,19,09,30,10.30
2021,05,19,09,31,10.30
2021,05,19,09,32,10.30
2021,05,19,09,33,10.20
2021,05,19,09,34,10.30
2021,05,19,09,35,10.30
2021,05,19,09,36,10.30
2021,05,19,09,37,10.30
2021,05,19,09,38,10.30
2021,05,19,09,39,10.30
2021,05,19,09,40,10.30
2021,05,19,09,41,10.20
2021,05,19,09,42,10.20
2021,05,19,09,43,10.20
2021,05,19,09,44,10.20
2021,05,19,09,45,10.10
2021,05,19,09,46,10.00
2021,05,19,09,47,9.90
2021,05,19,09,48,9.90
2021,05,19,09,49,9.80
2021,05,19,09,50,9.80
2021,05,19,09,51,9.80
2021,05,19,09,52,9.80
2021,05,19,09,53,9.70
2021,05,19,09,54,9.70
2021,05,19,09,55,9.70
2021,05,19,09,56,9.80
2021,05,19,09,57,9.90
2021,05,19,09,58,10.00
2021,05,19,09,59,10.00
2021,05,19,10,00,10.10
2021,05,19,10,01,10.10
2021,05,19,10,02,10.10
2021,05,19,10,03,10.00
2021,05,19,10,04,9.90
2021,05,19,10,05,9.90
2021,05,19,10,06,9.90
2021,05,19,10,07,9.90
2021,05,19,10,08,9.90
2021,05,19,10,09,9.90
2021,05,19,10,10,10.00
2021,05,19,10,11,10.00
2021,05,19,10,12,10.00
2021,05,19,10,13,10.00
2021,05,19,10,14,10.00
2021,05,19,10,15,9.90
2021,05,19,10,16,9.90
2021,05,19,10,17,9.90
2021,05,19,10,18,10.00
2021,05,19,10,19,10.10
2021,05,19,10,20,10.10
2021,05,19,10,21,10.10
2021,05,19,10,22,10.10
2021,05,19,10,23,10.10
2021,05,19,10,24,10.00
2021,05,19,10,25,10.00
2021,05,19,10,26,10.00
2021,05,19,10,27,9.90
2021,05,19,10,28,9.90
2021,05,19,10,29,9.90
2021,05,19,10,30,9.90
2021,05,19,10,31,9.90
2021,05,19,10,32,10.00
2021,05,19,10,33,10.00
2021,05,19,10,34,10.10
2021,05,19,10,35,10.10
2021,05,19,10,36,10.20
2021,05,19,10,37,10.20
2021,05,19,10,38,10.30
2021,05,19,10,39,10.30
2021,05,19,10,40,10.30
2021,05,19,10,41,10.30
2021,05,19,10,42,10.40
2021,05,19,10,43,10.40
2021,05,19,10,44,10.40
2021,05,19,10,45,10.30
2021,05,19,10,46,10.30
2021,05,19,10,47,10.30
2021,05,19,10,48,10.30
2021,05,19,10,49,10.30
2021,05,19,10,50,10.30
2021,05,19,10,51,10.40
2021,05,19,10,52,10.50
2021,05,19,10,53,10.60
2021,05,19,10,54,10.60
2021,05,19,10,55,10.60
2021,05,19,10,56,10.60
2021,05,19,10,57,10.50
2021,05,19,10,58,10.40
2021,05,19,10,59,10.30
2021,05,19,11,00,10.20
2021,05,19,11,01,10.20
2021,05,19,11,02,10.20
2021,05,19,11,03,10.10
2021,05,19,11,04,10.20
2021,05,19,11,05,10.20
2021,05,19,11,06,10.20
2021,05,19,11,07,10.30
2021,05,19,11,08,10.30
2021,05,19,11,09,10.40
2021,05,19,11,10,10.30
2021,05,19,11,11,10.40
2021,05,19,11,12,10.50
2021,05,19,11,13,10.40
2021,05,19,11,14,10.40
2021,05,19,11,15,10.40
2021,05,19,11,16,10.30
2021,05,19,11,17,10.30
2021,05,19,11,18,10.30
2021,05,19,11,19,10.30
2021,05,19,11,20,10.40
2021,05,19,11,21,10.50
2021,05,19,11,22,10.60
2021,05,19,11,23,10.70
2021,05,19,11,24,10.90
2021,05,19,11,25,11.00
2021,05,19,11,26,11.10
2021,05,19,11,27,11.10
2021,05,19,11,28,11.10
2021,05,19,11,29,11.10
2021,05,19,11,30,11.10
2021,05,19,11,31,11.10
2021,05,19,11,32,11.10
2021,05,19,11,33,11.10
2021,05,19,11,34,11.10
2021,05,19,11,35,11.00
2021,05,19,11,36,11.00
2021,05,19,11,37,11.00
2021,05,19,11,38,11.00
2021,05,19,11,39,11.00
2021,05,19,11,40,10.90
2021,05,19,11,41,10.80
2021,05,19,11,42,10.70
2021,05,19,11,43,10.60
2021,05,19,11,44,10.60
2021,05,19,11,45,10.60
2021,05,19,11,46,10.60
2021,05,19,11,47,10.60
2021,05,19,11,48,10.60
2021,05,19,11,49,10.60
2021,05,19,11,50,10.60
2021,05,19,11,51,10.70
2021,05,19,11,52,10.70
2021,05,19,11,53,10.80
2021,05,19,11,54,10.80
2021,05,19,11,55,10.70
2021,05,19,11,56,10.80
2021,05,19,11,57,10.80
2021,05,19,11,58,10.80
2021,05,19,11,59,10.80
2021,05,19,12,00,10.80
2021,05,19,12,01,10.80
2021,05,19,12,02,10.90
2021,05,19,12,03,10.90
2021,05,19,12,04,10.90
2021,05,19,12,05,11.00
2021,05,19,12,06,11.00
2021,05,19,12,07,11.10
2021,05,19,12,08,11.10
2021,05,19,12,09,11.10
2021,05,19,12,10,11.10
2021,05,19,12,11,11.10
2021,05,19,12,12,11.00
2021,05,19,12,13,11.00
2021,05,19,12,14,11.10
2021,05,19,12,15,11.10
2021,05,19,12,16,11.10
2021,05,19,12,17,11.10
2021,05,19,12,18,11.10
2021,05,19,12,19,11.20
2021,05,19,12,20,11.20
2021,05,19,12,21,11.20
2021,05,19,12,22,11.30
2021,05,19,12,23,11.40
2021,05,19,12,24,11.40
2021,05,19,12,25,11.40
2021,05,19,12,26,11.40
2021,05,19,12,27,11.40
2021,05,19,12,28,11.30
2021,05,19,12,29,11.30
2021,05,19,12,30,11.40
2021,05,19,12,31,11.50
2021,05,19,12,32,11.50
2021,05,19,12,33,11.60
2021,05,19,12,34,11.60
2021,05,19,12,35,11.70
2021,05,19,12,36,11.80
2021,05,19,12,37,11.90
2021,05,19,12,38,12.00
2021,05,19,12,39,11.90
2021,05,19,12,40,11.80
2021,05,19,12,41,11.70
2021,05,19,12,42,11.60
2021,05,19,12,43,11.60
2021,05,19,12,44,11.60
2021,05,19,12,45,11.70
2021,05,19,12,46,11.70
2021,05,19,12,47,11.70
2021,05,19,12,48,11.70
2021,05,19,12,49,11.70
2021,05,19,12,50,11.80
2021,05,19,12,51,11.80
2021,05,19,12,52,11.90
2021,05,19,12,53,12.00
2021,05,19,12,54,12.10
2021,05,19,12,55,12.20
2021,05,19,12,56,12.20
2021,05,19,12,57,12.20
2021,05,19,12,58,12.10
2021,05,19,12,59,12.10
2021,05,19,13,00,12.10
2021,05,19,13,01,12.10
2021,05,19,13,02,12.10
2021,05,19,13,03,12.10
2021,05,19,13,04,12.20
2021,05,19,13,05,12.20
2021,05,19,13,06,12.30
2021,05,19,13,07,12.40
2021,05,19,13,08,12.40
2021,05,19,13,09,12.30
2021,05,19,13,10,12.30
2021,05,19,13,11,12.30
2021,05,19,13,12,12.30
2021,05,19,13,13,12.10
2021,05,19,13,14,12.00
2021,05,19,13,15,11.90
2021,05,19,13,16,11.80
2021,05,19,13,17,11.90
2021,05,19,13,18,12.00
2021,05,19,13,19,12.20
2021,05,19,13,20,12.30
2021,05,19,13,21,12.30
2021,05,19,13,22,12.40
2021,05,19,13,23,12.40
2021,05,19,13,24,12.40
2021,05,19,13,25,12.30
2021,05,19,13,26,12.30
2021,05,19,13,27,12.30
2021,05,19,13,28,12.40
2021,05,19,13,29,12.50
2021,05,19,13,30,12.60
2021,05,19,13,31,12.70
2021,05,19,13,32,12.80
2021,05,19,13,33,12.80
2021,05,19,13,34,12.90
2021,05,19,13,35,12.90
2021,05,19,13,36,12.90
2021,05,19,13,37,12.90
2021,05,19,13,38,12.80
2021,05,19,13,39,12.80
2021,05,19,13,40,12.80
2021,05,19,13,41,12.80
2021,05,19,13,42,12.70
2021,05,19,13,43,12.70
2021,05,19,13,44,12.70
2021,05,19,13,45,12.70
2021,05,19,13,46,12.70
2021,05,19,13,47,12.80
2021,05,19,13,48,12.80
2021,05,19,13,49,12.70
2021,05,19,13,50,12.70
2021,05,19,13,51,12.70
2021,05,19,13,52,12.60
2021,05,19,13,53,12.60
2021,05,19,13,54,12.60
2021,05,19,13,55,12.60
2021,05,19,13,56,12.70
2021,05,19,13,57,12.70
2021,05,19,13,58,12.70
2021,05,19,13,59,12.70
2021,05,19,14,00,12.70
2021,05,19,14,01,12.70
2021,05,19,14,02,12.80
2021,05,19,14,03,12.90
2021,05,19,14,04,13.00
2021,05,19,14,05,13.10
2021,05,19,14,06,13.20
2021,05,19,14,07,13.40
2021,05,19,14,08,13.50
2021,05,19,14,09,13.60
2021,05,19,14,10,13.70
2021,05,19,14,11,13.80
2021,05,19,14,12,13.80
2021,05,19,14,13,14.00
2021,05,19,14,14,14.00
2021,05,19,14,15,14.00
2021,05,19,14,16,14.00
2021,05,19,14,17,14.00
2021,05,19,14,18,14.00
2021,05,19,14,19,14.10
2021,05,19,14,20,14.10
2021,05,19,14,21,14.20
2021,05,19,14,22,14.20
2021,05,19,14,23,14.30
2021,05,19,14,24,14.20
2021,05,19,14,25,14.20
2021,05,19,14,26,14.20
2021,05,19,14,27,14.10
2021,05,19,14,28,14.00
2021,05,19,14,29,14.00
2021,05,19,14,30,14.00
2021,05,19,14,31,14.10
2021,05,19,14,32,14.00
2021,05,19,14,33,13.90
2021,05,19,14,34,13.70
2021,05,19,14,35,13.60
2021,05,19,14,36,13.60
2021,05,19,14,37,13.50
2021,05,19,14,38,13.40
2021,05,19,14,39,13.30
2021,05,19,14,40,13.20
2021,05,19,14,41,13.10
2021,05,19,14,42,13.10
2021,05,19,14,43,12.90
2021,05,19,14,44,12.90
2021,05,19,14,45,12.90
2021,05,19,14,46,13.00
2021,05,19,14,47,13.00
2021,05,19,14,48,13.20
2021,05,19,14,49,13.30
2021,05,19,14,50,13.40
2021,05,19,14,51,13.30
2021,05,19,14,52,13.40
2021,05,19,14,53,13.40
2021,05,19,14,54,13.40
2021,05,19,14,55,13.40
2021,05,19,14,56,13.30
2021,05,19,14,57,13.30
2021,05,19,14,58,13.30
2021,05,19,14,59,13.30
2021,05,19,15,00,13.30
2021,05,19,15,01,13.30
2021,05,19,15,02,13.40
2021,05,19,15,03,13.40
2021,05,19,15,04,13.40
2021,05,19,15,05,13.30
2021,05,19,15,06,13.20
2021,05,19,15,07,13.20
2021,05,19,15,08,13.20
2021,05,19,15,09,13.20
2021,05,19,15,10,13.20
2021,05,19,15,11,13.30
2021,05,19,15,12,13.40
2021,05,19,15,13,13.50
2021,05,19,15,14,13.60
2021,05,19,15,15,13.70
2021,05,19,15,16,13.80
2021,05,19,15,17,13.90
2021,05,19,15,18,14.10
2021,05,19,15,19,14.30
2021,05,19,15,20,14.40
2021,05,19,15,21,14.60
2021,05,19,15,22,14.70
2021,05,19,15,23,14.80
2021,05,19,15,24,14.90
2021,05,19,15,25,15.00
2021,05,19,15,26,15.10
2021,05,19,15,27,15.10
2021,05,19,15,28,15.10
2021,05,19,15,29,15.20
2021,05,19,15,30,15.10
2021,05,19,15,31,15.00
2021,05,19,15,32,15.00
2021,05,19,15,33,15.10
2021,05,19,15,34,15.20
2021,05,19,15,35,15.30
2021,05,19,15,36,15.30
2021,05,19,15,37,15.20
2021,05,19,15,38,15.10
2021,05,19,15,39,15.10
2021,05,19,15,40,15.10
2021,05,19,15,41,15.10
2021,05,19,15,42,15.10
2021,05,19,15,43,14.90
2021,05,19,15,44,14.80
2021,05,19,15,45,14.60
2021,05,19,15,46,14.50
2021,05,19,15,47,14.40
2021,05,19,15,48,14.50
2021,05,19,15,49,14.50
2021,05,19,15,50,14.50
2021,05,19,15,51,14.50
2021,05,19,15,52,14.30
2021,05,19,15,53,14.20
2021,05,19,15,54,14.20
2021,05,19,15,55,14.20
2021,05,19,15,56,14.20
2021,05,19,15,57,14.30
2021,05,19,15,58,14.30
2021,05,19,15,59,14.40
2021,05,19,16,00,14.40
2021,05,19,16,01,14.40
2021,05,19,16,02,14.30
2021,05,19,16,03,14.40
2021,05,19,16,04,14.30
2021,05,19,16,05,14.30
2021,05,19,16,06,14.20
2021,05,19,16,07,14.20
2021,05,19,16,08,14.20
2021,05,19,16,09,14.10
2021,05,19,16,10,14.00
2021,05,19,16,11,13.90
2021,05,19,16,12,13.90
2021,05,19,16,13,13.90
2021,05,19,16,14,13.90
2021,05,19,16,15,14.00
2021,05,19,16,16,14.10
2021,05,19,16,17,14.20
2021,05,19,16,18,14.20
2021,05,19,16,19,14.20
2021,05,19,16,20,14.20
2021,05,19,16,21,14.30
2021,05,19,16,22,14.30
2021,05,19,16,23,14.30
2021,05,19,16,24,14.30
2021,05,19,16,25,14.40
2021,05,19,16,26,14.40
2021,05,19,16,27,14.40
2021,05,19,16,28,14.40
2021,05,19,16,29,14.40
2021,05,19,16,30,14.40
2021,05,19,16,31,14.50
2021,05,19,16,32,14.60
2021,05,19,16,33,14.60
2021,05,19,16,34,14.60
2021,05,19,16,35,14.70
2021,05,19,16,36,14.70
2021,05,19,16,37,14.60
2021,05,19,16,38,14.60
2021,05,19,16,39,14.50
2021,05,19,16,40,14.40
2021,05,19,16,41,14.40
2021,05,19,16,42,14.40
2021,05,19,16,43,14.40
2021,05,19,16,44,14.30
2021,05,19,16,45,14.30
2021,05,19,16,46,14.40
2021,05,19,16,47,14.30
2021,05,19,16,48,14.30
2021,05,19,16,49,14.30
2021,05,19,16,50,14.30
2021,05,19,16,51,14.30
2021,05,19,16,52,14.20
2021,05,19,16,53,14.20
2021,05,19,16,54,14.20
2021,05,19,16,55,14.20
2021,05,19,16,56,14.20
2021,05,19,16,57,14.20
2021,05,19,16,58,14.20
2021,05,19,16,59,14.20
2021,05,19,17,00,14.30
2021,05,19,17,01,14.30
2021,05,19,17,02,14.40
2021,05,19,17,03,14.50
2021,05,19,17,04,14.50
2021,05,19,17,05,14.40
2021,05,19,17,06,14.40
2021,05,19,17,07,14.30
2021,05,19,17,08,14.30
2021,05,19,17,09,14.30
2021,05,19,17,10,14.30
2021,05,19,17,11,14.30
2021,05,19,17,12,14.30
2021,05,19,17,13,14.30
2021,05,19,17,14,14.30
2021,05,19,17,15,14.40
2021,05,19,17,16,14.40
2021,05,19,17,17,14.50
2021,05,19,17,18,14.40
2021,05,19,17,19,14.40
2021,05,19,17,20,14.40
2021,05,19,17,21,14.40
2021,05,19,17,22,14.50
2021,05,19,17,23,14.50
2021,05,19,17,24,14.60
2021,05,19,17,25,14.60
2021,05,19,17,26,14.50
2021,05,19,17,27,14.40
2021,05,19,17,28,14.40
2021,05,19,17,29,14.30
2021,05,19,17,30,14.30
2021,05,19,17,31,14.30
2021,05,19,17,32,14.30
2021,05,19,17,33,14.40
2021,05,19,17,34,14.40
2021,05,19,17,35,14.30
2021,05,19,17,36,14.30
2021,05,19,17,37,14.30
2021,05,19,17,38,14.20
2021,05,19,17,39,14.20
2021,05,19,17,40,14.20
2021,05,19,17,41,14.20
2021,05,19,17,42,14.10
2021,05,19,17,43,14.10
2021,05,19,17,44,14.10